Regional Weather Roundup
Issued by NWS

Home | Current Version | Previous Version | Text Only | Print | Product List | Glossary Off
Versions: 1 2 3 4 5 6 7 8 9 10 11 12 13 14 15 16 17 18 19 20 21 22 23 24 25 26 27 28 29 30 31 32 33 34 35 36 37 38 39 40 41 42 43 44 45 46 47 48 49 50

000
ASUS43 KMKX 241921
RWRWI

WISCONSIN REGIONAL WEATHER ROUNDUP
NATIONAL WEATHER SERVICE MILWAUKEE/SULLIVAN WI
200 PM CDT MON APR 24 2017

NOTE: "FAIR" INDICATES FEW OR NO CLOUDS BELOW 12,000 FEET WITH NO
SIGNIFICANT WEATHER AND/OR OBSTRUCTIONS TO VISIBILITY.

WIZ001-002-006>008-014>016-023>028-242000-
NORTHWEST WISCONSIN

CITY           SKY/WX    TMP DP  RH WIND       PRES   REMARKS
SUPERIOR ARPT  CLOUDY    38  32  79 E16G29    29.79F WCI  29
ASHLAND        CLOUDY    45  31  58 NE13      29.82F
HAYWARD        CLOUDY    65  30  27 S21G28    29.75F
SIREN          CLOUDY    67  33  28 S16G28    29.69F
CUMBERLAND     PTSUNNY   64  32  29 S20       29.73F
RICE LAKE      PTSUNNY   65  32  29 SE21G29   29.75F
CHETEK         PTSUNNY   64  36  34 S14G24    29.75F
LADYSMITH      CLOUDY    64  35  35 S15       29.79F
EAU CLAIRE     CLOUDY    66  31  27 S20G29    29.75F
MENOMONIE      CLOUDY    68  32  26 SE15G24   29.73F
NEW RICHMOND   CLOUDY    69  30  23 S20       29.70F
OSCEOLA        CLOUDY    69  31  25 S24G32    29.71F
$$

WIZ003>005-009-010-017-018-242000-
NORTH CENTRAL WISCONSIN

CITY           SKY/WX    TMP DP  RH WIND       PRES   REMARKS
MANITOWISH WTR CLOUDY    63  32  31 S18G26    29.81F
ARBOR VITAE    MOSUNNY   62  32  32 S14G21    29.83F
WOODRUFF       MOSUNNY   62  32  32 S14G21    29.83F
RHINELANDER    MOSUNNY   64  30  27 S14G23    29.85F
EAGLE RIVER    MOSUNNY   62  28  27 S8G20     29.85F
LAND O LAKES   MOSUNNY   65  28  24 S14G23    29.84F
PHILLIPS       CLOUDY    63  33  32 S15G28    29.79F
TOMAHAWK       PTSUNNY   65  32  28 S9        29.84F
MEDFORD        CLOUDY    61  37  40 S13G21    29.83F
MERRILL        PTSUNNY   65  32  29 S12G17    29.84F
$$

WIZ029-030-035-036-043>047-242000-
CENTRAL WISCONSIN

CITY           SKY/WX    TMP DP  RH WIND       PRES   REMARKS
WAUSAU         CLOUDY    64  34  32 S18       29.84F
MOSINEE        PTSUNNY   63  32  31 S16G24    29.87F
MARSHFIELD     PTSUNNY   65  32  29 S20G28    29.82F
STEVENS POINT  CLOUDY    64  32  30 SE12G18   29.87F
WAUPACA        MOSUNNY   69  32  25 SE18      29.88F
WAUTOMA        PTSUNNY   68  34  28 S16       29.88
WISC RAPIDS    CLOUDY    68  30  24 S12G24    29.85F
CAMP DOUGLAS   CLOUDY    68  30  24 S15G24    29.83F
$$

WIZ011>013-019>022-031-037>040-048>050-242000-
NORTHEAST WISCONSIN

CITY           SKY/WX    TMP DP  RH WIND       PRES   REMARKS
ANTIGO         MOSUNNY   60  35  39 S17       29.88F
SHAWANO        CLOUDY    65  39  39 SE8       29.90F
OCONTO         CLOUDY    52  39  61 E7        29.92F
STURGEON BAY   CLOUDY    51  40  65 SE9       29.96F
GREEN BAY      CLOUDY    57  46  66 NE9       29.93F
MANITOWOC      CLOUDY    53  41  63 SE7       29.95F
APPLETON       PTSUNNY   64  34  32 S9        29.89F
CLINTONVILLE   CLOUDY    64  36  34 S12       29.89F
OSHKOSH        CLOUDY    64  42  44 E7        29.89F
$$

WIZ032>034-041-042-053>061-242000-
SOUTHWEST WISCONSIN

CITY           SKY/WX    TMP DP  RH WIND       PRES   REMARKS
LA CROSSE      MOSUNNY   72  30  21 S23G30    29.78F
SPARTA         MOSUNNY   70  30  22 S17G28    29.81F
VIROQUA        MOSUNNY   69  29  23 S18G26    29.82F
BOSCOBEL       SUNNY     73  30  20 S14G22    29.83F
PRAIRIE DU CHI MOSUNNY   71  25  17 SE12G21   29.80F
PLATTEVILLE    MOSUNNY   70  32  24 SE17G24   29.85F
$$

WIZ056-057-062-063-064-067-068-242000-
SOUTH CENTRAL WISCONSIN

CITY           SKY/WX    TMP DP  RH WIND       PRES   REMARKS
REEDSBURG      MOSUNNY   71  34  26 S16G23    29.84F
BARABOO/DELLS  MOSUNNY   69  31  24 SE15      29.86F
LONE ROCK      SUNNY     72  31  22 S16G22    29.84F
MINERAL POINT  SUNNY     72  28  20 SE15      29.85F
MADISON        PTSUNNY   69  32  25 S14       29.87F
MIDDLETON      MOSUNNY   71  31  23 S17G23    29.86F
WATERTOWN      CLOUDY    71  37  29 S8G20     29.89F
MONROE         MOSUNNY   70  32  24 S15G22    29.87F
JANESVILLE     PTSUNNY   73  27  17 S17G23    29.88F
$$

WIZ051-052-058>065-066-070>072-242000-
SOUTHEAST WISCONSIN

CITY           SKY/WX    TMP DP  RH WIND       PRES   REMARKS
MILWAUKEE      PTSUNNY   65  38  36 SE10      29.93F
WAUKESHA       SUNNY     66  34  30 SE12G23   29.92F
MILWAUKEE/TIMM SUNNY     66  34  30 SE14      29.93F
RACINE         MOSUNNY   64  30  27 S12       29.95F
KENOSHA        SUNNY     67  30  25 SE16G23   29.93F
FOND DU LAC    CLOUDY    68  35  29 S14       29.89F
SHEBOYGAN      MOSUNNY   60  41  49 SE9       29.93F
WEST BEND      MOSUNNY   64  37  36 SE13      29.91F
JUNEAU         CLOUDY    68  31  25 S13G22    29.90F
$$

LSZ147-162-242000-
LAKE SUPERIOR

STATION/POSITION TIME  TEMP    WIND        PRES    WAVE
                       AIR SEA DIR/SP/G            HT/PER
                 (UTC) (F)     (DEG/KT/KT) (MB)    (FT/S)
DEVILS ISLAND    1900   37      60/ 24/ 28 1011.2F
PORT WING        1755   39      30/ 23/ 26 1010.2F
SAXON HARBOR     1840   39      20/  7/  9 1010.2F
$$

LMZ867-665-643>646-242000-
LAKE MICHIGAN

STATION/POSITION TIME  TEMP    WIND        PRES    WAVE
                       AIR SEA DIR/SP/G            HT/PER
                 (UTC) (F)     (DEG/KT/KT) (MB)    (FT/S)
CHAMBERS ISLAND  1840   43     360/  8/  9 1014.6F
N MID LAKE BUOY  1850   40 37   80/  8/ 10 1017.1F   1/ 4
NORTHPORT PIER   1840   40      90/ 11/ 14 1015.6F
SISTER BAY       1836   50     130/ 13/ 18   N/A
KEWAUNEE LAKESHO 1854   45      90/  3/  6 1014.2F
SHEBOYGAN LAKESH 1900   43     160/  9/ 10 1014.2F
PORT WASHINGTON  1840   47     130/  3/  6 1015.2F
MILWAUKEE LAKESH 1900   46     100/  4/  5   N/A
S MID LAKE BUOY  1850   46 43   50/  4/  4 1014.8F   1/ 5
KENOSHA   LAKESH 1900   53     120/  3/  5 1013.5
$$

TC  - TEMPERATURE IN CELSIUS
VSB - VISIBILITY IN STATUTE MILES
WCI - WIND CHILL INDEX
HX  - HEAT INDEX





USA.gov is the U.S. government's official web portal to all federal, state and local government web resources and services.